Presure
161 138 132 187 181 180 203 205 203 207 188 199 197 200 193 200 188 178 163 187 190 192 186 179 190 189 200 199 120 190 203 195 194 201 190 190 191 200 198 196 198 199 195 202 203 203 146 144 137
198 174 194 149 178 176 158 130 168 196 199 190 180 188 212 197 195 197 192 185 187 191 189 191 187 179 192 188 203 187 178 186 179 173 182 183 175 191 182 182 185 183 184 192 204 202 146 188 138
196 185 206 157 184 179 217 216 148 194 200 202 190 187 182 196 199 189 186 196 187 184 193 189 186 184 177 187 184 185 183 201 180 195 197 178 183 175 183 186 183 196 197 179 185 202 205 188 188
188 163 190 199 187 206 209 210 206 200 199 196 196 197 191 189 192 186 178 186 191 182 181 183 187 177 176 188 185 188 183 194 185 197 189 190 175 198 187 184 188 186 188 197 200 209 212 185 191
136 184 173 160 188 191 199 192 216 205 186 195 185 186 189 194 191 169 182 182 176 176 188 180 175 172 200 191 192 191 189 192 192 188 179 157 165 190 186 182 187 180 176 174 177 213 170 176 178
173 196 156 182 192 180 167 164 167 195 195 184 188 185 182 179 191 188 181 184 182 189 173 174 179 185 176 179 179 193 199 192 190 195 182 185 171 185 187 185 190 197 198 195 206 188 205 231 213
178 136 187 185 198 202 199 191 179 201 190 185 182 179 192 190 179 207 214 199 197 201 193 194 187 187 187 186 191 181 185 193 185 189 174 172 191 186 203 204 200 194 192 195 196 196 195 192 190
122 195 191 168 176 194 197 172 190 186 171 187 189 188 186 194 202 199 198 192 196 199 183 179 184 197 190 178 189 180 180 171 163 163 163 181 189 193 193 193 185 183 186 198 199 193 197 195 202
156 195 192 140 149 138 144 206 189 146 187 177 189 178 193 206 194 191 189 190 182 190 177 177 179 185 180 183 182 177 169 168 176 178 176 166 179 185 191 187 186 194 191 192 191 192 115 193 194
188 188 170 181 165 182 185 130 162 190 184 174 124 178 162 171 171 197 204 199 194 190 190 189 180 178 174 182 189 189 186 181 180 185 190 194 194 187 185 188 168 189 192 201 202 204 203 199 206
178 191 152 177 187 192 184 156 188 149 153 172 166 173 185 165 161 167 183 165 169 182 172 168 162 189 196 193 197 195 195 192 190 184 181 165 160 153 162 165 163 189 196 200 170 172 137 191 192
160 178 187 149 182 175 132 182 134 168 180 176 180 167 181 166 143 156 160 147 142 164 163 165 152 163 159 167 156 158 151 181 185 153 158 159 171 164 188 144 145 147 164 186 193 188 186 190 191
183 185 195 185 183 157 167 154 159 178 183 144 166 179 171 172 177 158 179 152 154 149 154 159 137 154 170 167 157 164 171 159 156 159 187 188 174 155 148 144 133 131 216 209 222 196 168 171 193
178 159 166 174 165 176 175 181 147 167 172 163 178 141 172 184 172 181 182 184 183 159 158 188 160 181 182 155 147 150 180 179 140 162 178 184 181 170 182 179 182 196 221 207 225 211 218 216 213
182 179 180 189 144 169 173 168 167 143 154 137 182 182 163 148 163 184 137 170 177 180 183 180 178 179 164 157 154 178 179 170 172 174 177 173 172 162 168 173 181 221 238 219 234 224 217 216 213
165 181 175 186 184 186 172 167 173 171 178 175 182 173 173 157 152 137 183 176 134 160 187 178 183 164 178 185 177 175 164 178 183 200 172 190 175 164 181 174 161 224 224 236 227 237 236 225 223
146 147 166 158 183 174 176 158 173 156 153 172 167 176 166 172 174 175 179 178 180 182 176 160 168 183 165 183 171 187 170 188 186 173 192 191 157 160 163 169 242 223 227 237 234 230 239 242 235
148 168 167 185 182 173 174 153 174 169 167 169 175 172 170 141 179 179 174 179 180 176 184 183 170 143 159 183 185 180 165 198 198 182 180 177 183 156 171 220 230 227 223 238 238 235 250 248 242
176 175 124 160 161 146 178 179 175 178 172 181 183 180 182 185 185 185 178 171 172 183 184 187 189 175 184 190 190 198 200 191 157 179 183 152 181 199 242 241 241 231 247 240 238 250 245 250 244
149 152 174 152 138 175 135 186 153 171 186 171 175 172 174 177 176 178 183 182 188 191 187 189 189 177 181 185 185 184 184 184 188 173 174 179 239 263 245 251 250 254 253 245 248 249 252 260 256
191 178 175 178 158 156 177 174 181 179 177 180 177 182 178 179 181 179 178 182 194 180 191 192 188 182 175 181 190 180 190 210 186 200 220 272 256 213 257 255 253 254 252 251 252 260 255 273 281
157 152 141 160 157 158 182 179 164 167 182 185 181 181 176 161 181 175 187 178 188 178 184 189 190 191 187 190 177 192 176 192 187 242 253 259 260 253 262 253 257 252 256 264 266 269 266 270 277
194 152 152 197 149 188 177 159 180 182 177 178 168 171 182 184 185 188 189 184 181 185 176 172 195 181 167 169 189 179 179 232 237 268 263 262 258 255 261 254 264 264 271 275 268 282 272 293 305
208 193 171 169 156 194 175 164 127 184 178 176 171 180 184 188 183 197 181 183 180 177 179 181 174 171 187 191 182 181 229 231 264 268 265 264 254 254 259 261 270 273 271 281 281 291 286 285 282
175 202 177 153 165 185 173 171 182 185 161 176 186 180 156 173 172 183 180 185 170 195 185 181 179 178 199 210 215 228 247 283 266 267 258 259 256 264 266 278 275 280 284 288 269 261 279 279 274
168 192 175 157 188 198 180 206 148 160 195 208 188 174 182 167 187 173 203 206 199 184 198 202 186 186 179 212 222 248 246 268 260 257 258 264 264 273 271 285 293 289 285 257 258 256 250 281 270
191 196 166 169 169 196 194 181 165 172 167 166 195 156 174 185 160 193 183 169 181 168 210 194 196 215 213 227 249 276 271 263 260 264 261 265 272 280 286 282 281 287 295 287 257 256 250 243 273
193 192 196 182 200 202 200 182 174 166 172 172 173 165 161 198 185 183 162 186 194 205 214 209 218 226 224 260 280 267 266 264 264 266 269 266 275 277 280 270 352 363 371 387 382 152 254 245 258
201 211 194 200 203 183 204 188 180 192 189 180 183 198 182 165 170 190 207 200 204 211 155 236 228 223 248 257 280 276 265 267 268 266 264 270 269 271 265 330 273 339 351 358 357 281 253 244 241
204 199 202 201 204 209 194 196 213 203 201 178 198 208 201 203 202 232 90 240 227 217 231 238 227 284 267 284 275 268 269 270 267 262 267 268 267 306 306 303 313 320 331 330 324 304 257 243 241
Wind_Speed
49 61 61 48 45 48 43 44 45 47 51 50 49 51 53 52 55 53 53 56 58 57 59 62 61 60 58 60 38 59 57 59 61 63 64 65 68 67 69 71 72 71 74 73 74 74 69 70 71
52 49 43 59 45 47 52 47 53 47 49 50 50 45 44 50 49 51 51 55 55 57 58 59 59 58 58 58 58 58 58 61 60 58 62 65 66 68 69 71 74 73 71 72 71 71 49 72 62
48 49 40 58 40 38 42 41 38 47 49 45 51 51 48 47 48 50 50 51 55 54 55 56 58 59 59 62 61 64 63 60 63 65 68 65 69 66 74 77 74 74 77 71 75 65 69 69 72
47 46 38 37 38 45 43 38 42 46 47 47 45 43 46 48 47 48 48 51 53 52 54 56 58 58 57 62 61 63 61 61 64 63 64 67 68 74 78 79 82 81 81 80 76 67 65 71 71
68 38 35 59 38 48 39 39 39 41 43 42 44 45 47 47 47 43 47 50 49 51 55 56 55 56 54 57 61 61 62 63 64 65 67 61 64 74 73 74 80 69 66 64 69 64 65 67 63
42 40 54 35 39 57 51 35 41 37 38 41 43 47 48 44 46 49 46 50 51 53 51 53 56 58 58 59 59 60 61 62 64 66 65 66 66 74 80 78 80 82 82 80 77 81 71 63 68
44 45 36 35 32 33 33 30 31 35 36 40 43 49 48 50 46 41 41 48 50 47 52 52 55 57 57 59 58 61 61 60 61 64 64 65 76 77 78 79 80 82 80 78 79 79 77 76 73
65 37 36 34 32 25 29 29 31 28 36 37 44 48 49 43 41 42 42 44 46 44 53 53 54 51 56 61 59 61 61 59 59 59 61 67 73 77 79 79 78 80 82 78 75 77 76 78 75
60 39 37 40 43 49 62 34 26 44 28 31 33 36 35 37 38 43 45 44 45 45 48 51 52 55 59 60 63 63 58 57 63 64 67 63 69 71 73 74 74 75 78 77 77 77 51 79 77
44 41 49 33 42 34 29 59 46 29 29 32 41 34 45 36 33 34 42 46 47 47 49 51 51 55 56 60 65 66 67 67 67 69 71 74 75 71 73 75 70 78 78 77 78 78 77 75 77
41 35 50 37 39 34 38 53 34 58 49 30 40 39 33 42 45 36 38 39 37 41 37 41 44 53 58 59 61 61 65 67 69 69 67 61 60 58 63 64 72 77 79 79 70 72 54 76 75
35 39 39 56 41 42 54 38 58 37 41 38 44 39 37 47 45 50 46 50 48 43 45 46 47 48 52 50 54 55 55 64 65 58 62 64 70 70 77 67 67 69 69 82 86 81 79 80 77
48 44 37 42 40 53 47 60 46 44 47 69 48 44 41 39 43 54 47 56 54 52 53 54 56 56 52 54 58 61 63 63 62 65 71 74 73 72 72 71 68 64 82 87 84 82 74 75 83
44 48 50 46 44 46 47 46 60 49 46 49 52 65 48 55 44 47 49 51 51 57 56 61 56 58 59 62 60 61 67 67 71 68 68 70 72 74 79 82 87 88 75 70 81 88 85 86 87
55 53 55 44 59 48 50 49 50 68 61 67 59 59 50 64 54 56 53 48 52 54 57 54 58 58 60 66 66 70 70 66 70 72 73 72 75 77 80 83 89 87 81 77 77 81 86 88 90
52 59 53 55 56 52 55 54 58 57 58 60 63 62 62 67 68 58 61 61 54 58 63 61 61 62 67 71 72 71 70 74 79 81 73 82 78 78 85 87 80 90 86 87 83 84 86 87 88
60 52 52 46 61 59 60 55 61 58 65 62 62 66 69 67 68 68 66 62 68 65 62 64 70 73 74 77 76 80 75 77 77 74 81 82 79 83 86 89 94 92 91 95 92 86 89 90 87
46 57 57 69 65 58 63 60 64 64 64 66 68 70 70 68 75 74 71 72 69 63 75 76 72 76 78 76 79 73 80 90 91 74 76 78 84 89 93 97 99 98 95 99 101 99 96 91 87
70 72 71 62 50 44 70 70 69 69 73 74 74 74 74 76 77 78 76 69 69 74 76 83 84 72 83 84 85 94 97 94 91 89 81 87 100 95 102 101 102 98 97 94 94 96 93 91 85
58 61 75 70 58 69 65 74 66 67 74 76 75 77 77 78 79 78 80 80 82 83 83 86 88 82 83 87 83 88 87 87 92 86 89 93 108 96 96 92 94 94 93 91 90 92 94 92 88
69 75 75 77 69 56 77 72 79 78 81 81 79 80 78 81 82 83 83 84 84 78 85 87 89 84 77 81 97 85 97 106 90 104 105 102 100 90 91 90 91 90 90 90 89 87 86 85 83
65 69 65 79 75 66 79 74 74 79 84 83 84 83 82 67 87 84 88 85 86 81 87 92 91 94 92 96 83 102 82 103 96 117 94 98 90 89 88 88 89 88 88 85 85 84 82 80 72
73 73 71 74 65 81 80 76 75 80 84 87 84 83 90 91 91 92 90 89 89 90 80 80 98 90 73 76 105 86 88 118 119 97 92 91 87 87 86 87 87 86 85 81 79 77 72 64 46
74 74 96 82 82 79 84 87 44 82 85 90 91 92 93 93 89 96 94 93 92 89 95 96 84 79 101 102 93 93 119 115 100 91 87 85 84 84 87 87 87 84 81 76 67 63 56 49 42
95 84 96 77 98 85 85 89 79 82 77 88 92 92 75 91 86 97 96 100 89 102 99 94 93 92 108 112 113 124 124 89 87 85 87 86 86 88 87 84 81 78 72 65 57 54 51 48 43
96 90 89 83 90 88 90 81 70 84 84 84 94 94 92 83 96 96 93 101 105 108 110 110 102 102 94 113 120 122 117 86 86 88 89 89 88 87 83 79 74 68 63 53 54 52 48 46 44
84 91 105 87 98 99 90 90 91 84 94 92 93 81 99 101 79 100 103 92 104 89 115 116 114 119 116 126 120 90 83 84 85 87 85 85 83 79 77 74 71 62 60 52 52 50 48 44 44
94 93 92 103 97 98 95 94 96 98 102 94 103 93 79 106 107 106 86 104 110 116 118 118 123 125 122 105 87 85 82 81 82 81 79 78 74 73 74 68 46 37 30 28 30 36 49 45 44
104 102 97 99 98 102 98 99 101 100 102 111 110 115 108 91 101 106 118 114 114 116 72 123 118 116 109 96 79 78 78 77 76 74 74 71 68 69 65 39 31 27 24 22 22 48 48 46 44
108 103 108 106 103 110 105 101 107 107 115 102 113 113 110 113 117 125 17 121 120 119 127 116 115 84 88 76 74 75 74 71 70 70 67 64 64 43 29 27 21 18 16 14 18 35 46 46 45
Wind_Direction
297 298 294 295 290 285 291 277 272 271 277 271 273 271 272 268 270 270 273 270 268 268 267 272 270 272 270 271 274 270 270 269 269 268 268 269 271 273 273 271 271 271 269 272 275 275 265 264 262
306 303 309 289 288 281 289 299 288 272 269 272 277 278 270 268 266 266 268 271 272 269 272 270 272 276 272 273 269 272 272 270 270 270 273 273 272 274 272 272 273 272 271 273 277 274 271 273 267
307 297 307 285 295 289 281 271 291 277 271 270 273 274 273 268 266 272 275 268 273 275 272 273 275 276 280 276 274 273 273 271 273 271 270 274 273 273 275 275 276 277 276 276 277 278 281 273 275
308 285 303 309 305 290 283 273 272 270 271 272 271 273 273 272 274 273 276 275 272 276 276 274 272 277 277 275 273 273 274 273 272 271 271 269 275 269 274 275 276 279 279 280 283 285 281 274 279
291 310 301 282 296 292 285 280 271 269 277 270 275 273 274 272 272 282 274 273 277 277 273 274 277 279 271 271 271 272 273 273 271 270 272 268 268 271 272 277 275 277 280 279 278 284 267 266 270
304 318 276 309 300 287 293 287 295 277 272 271 270 275 277 280 275 273 278 271 272 273 274 274 275 274 277 276 278 274 274 273 275 275 276 272 276 274 274 279 280 282 282 282 282 285 288 291 284
309 299 311 316 305 295 289 296 290 281 281 283 281 281 279 277 281 270 263 266 266 266 269 271 274 275 274 273 273 277 275 272 272 271 276 278 271 276 275 278 281 282 285 285 285 285 285 284 283
294 302 310 288 309 310 299 287 297 289 284 283 277 277 279 281 276 274 271 271 269 270 272 275 273 270 274 277 274 278 282 282 281 280 281 281 280 281 281 283 281 280 280 283 282 282 282 282 283
284 307 310 299 301 302 292 291 300 301 295 287 292 281 295 286 293 289 283 278 282 275 279 281 280 278 281 279 280 281 280 281 279 279 278 281 281 281 280 279 279 280 279 281 281 281 275 280 279
307 310 288 281 306 312 316 300 286 305 298 282 275 285 284 286 286 287 290 279 279 281 279 277 282 284 285 280 277 277 281 284 287 288 286 284 283 284 285 285 281 282 282 283 280 280 280 278 282
309 304 268 309 310 300 307 275 306 297 284 291 275 284 291 280 282 277 294 276 281 285 290 279 277 283 282 283 277 278 280 282 282 281 282 282 280 275 279 280 281 281 284 285 276 276 263 279 279
270 312 306 272 307 309 299 305 300 289 307 300 304 294 298 274 296 282 278 284 284 275 275 277 279 279 281 283 278 280 274 286 285 278 282 283 284 283 289 265 263 265 282 284 285 281 280 281 278
308 304 295 305 301 290 290 291 278 308 299 291 292 301 281 284 292 280 292 281 279 279 283 284 267 280 285 281 279 284 285 282 281 283 290 289 284 279 280 279 276 278 282 281 280 279 277 276 278
303 285 296 305 294 305 306 297 297 296 298 287 301 293 294 291 292 292 293 292 290 288 277 292 278 288 286 277 282 281 288 285 274 281 288 287 285 283 290 290 290 286 285 284 281 278 277 276 277
300 303 300 293 270 301 300 297 296 280 296 294 292 292 285 282 289 299 293 280 289 289 290 285 284 283 272 273 285 284 284 277 279 280 281 280 280 279 282 283 284 292 294 286 284 279 277 277 277
306 298 289 289 292 289 299 298 300 301 295 299 295 297 299 283 289 291 296 293 289 292 290 288 288 277 288 286 285 282 272 279 280 283 275 282 276 278 280 282 282 292 295 289 286 282 279 276 276
296 268 290 283 290 296 295 290 296 286 290 292 296 295 292 296 296 296 292 295 291 294 281 272 293 295 291 292 290 290 291 286 283 283 283 286 281 282 280 281 292 294 293 287 285 282 281 279 275
280 278 286 287 288 289 290 279 293 295 296 296 294 293 295 291 294 294 296 295 294 294 295 293 291 287 286 291 294 288 279 293 294 280 276 274 284 285 284 292 293 292 292 287 284 284 282 279 275
289 291 290 296 293 267 288 288 293 290 294 289 286 291 291 290 290 290 294 294 293 297 299 296 295 291 294 296 298 297 294 293 278 288 284 285 289 295 295 288 287 287 285 283 282 283 281 280 277
283 271 284 278 290 287 292 286 273 295 285 290 292 292 292 293 293 292 291 292 291 293 295 294 293 295 297 297 295 294 292 290 290 276 276 282 299 291 291 289 287 286 285 284 284 284 282 279 278
274 280 279 279 292 285 285 288 286 288 288 288 289 288 289 290 289 290 291 292 289 293 292 289 290 293 293 296 293 292 294 292 287 292 298 296 296 291 291 290 288 286 286 286 285 283 282 285 283
282 283 265 288 290 286 282 283 288 290 286 286 287 288 289 285 290 292 291 294 292 295 295 292 291 292 295 293 295 295 286 295 294 305 292 296 293 292 289 290 287 286 285 285 286 287 286 286 285
274 280 284 277 275 277 280 285 281 284 285 285 288 289 288 288 289 290 289 290 293 291 289 293 290 296 288 290 296 295 293 306 306 298 294 293 291 290 289 288 287 288 289 289 288 287 286 285 278
281 271 278 280 285 274 277 286 296 283 284 284 288 286 286 287 289 288 291 290 291 292 291 290 294 295 295 296 300 298 306 305 299 294 292 291 292 291 291 290 290 290 290 290 289 283 282 278 272
272 278 273 277 281 269 275 283 279 276 278 280 280 283 283 287 289 287 289 287 295 289 289 293 296 297 299 302 303 307 304 297 296 295 296 295 294 293 292 292 292 290 288 287 284 284 277 272 267
277 275 276 276 272 268 272 275 270 282 277 283 275 281 282 287 280 289 287 290 290 290 295 296 296 296 298 303 307 304 306 297 295 295 295 295 294 295 294 294 294 292 285 281 279 278 277 267 263
276 273 274 275 278 273 271 274 282 273 281 285 281 281 284 281 289 283 283 293 289 294 294 289 294 300 302 305 301 294 292 293 292 292 295 296 295 298 300 300 299 295 287 277 271 271 271 274 261
277 274 275 274 272 271 272 274 274 278 278 277 279 286 288 283 280 285 289 288 288 292 293 294 298 301 302 299 291 290 289 290 290 294 296 296 301 302 303 303 302 299 294 281 260 265 265 269 267
276 277 274 273 272 272 274 271 273 276 277 276 279 279 281 288 287 285 284 286 289 292 292 297 297 300 299 296 289 288 289 290 294 296 298 300 302 304 305 305 297 305 300 282 257 244 258 263 266
274 275 275 274 276 276 273 277 278 275 277 281 278 279 281 282 284 291 307 291 290 294 297 295 296 292 293 288 288 289 291 295 297 298 299 302 303 304 313 323 313 318 309 288 259 238 250 259 264